TIANWANG 1B (TW-1B)
1 40927U 15051C   19359.41067182  .00011287  00000-0  15165-3 0  9990
2 40927  97.1153  44.5248 0008523  48.1693  72.8747 15.58026689239511
TIANWANG 1A (TW-1A)
1 40928U 15051D   19359.39629726  .00002349  00000-0  57458-4 0  9997
2 40928  97.1284  26.4108 0012516 100.9808 315.5704 15.41711889238393
LAPAN A2
1 40931U 15052B   19356.78059101  .00000640  00000-0  00000+0 0  9994
2 40931   5.9941 162.4271 0013680 289.5655  70.3857 14.76633390228956
LQSAT
1 40958U 15057A   19358.80463705  .00000013  00000-0  96694-5 0  9996
2 40958  97.8780  62.6716 0018012 358.8292   1.2871 14.73101154226640
CHUBUSAT 2
1 41338U 16012B   19359.45356432  .00000271  00000-0  14269-4 0  9994
2 41338  31.0045  18.7506 0013743 182.9459 177.1096 15.00223492211437
CHUBUSAT 3
1 41339U 16012C   19359.46769655  .00000281  00000-0  15031-4 0  9990
2 41339  31.0132  16.5113 0013358 191.4222 168.6116 15.00393600211437
OUFTI-1
1 41458U 16025C   19358.81266691  .00001287  00000-0  68133-4 0  9994
2 41458  98.1003  95.2980 0166388  81.1633 280.8392 15.06337106201032
E-STAR-2
1 41459U 16025D   19359.54051708  .00001398  00000-0  74156-4 0  9992
2 41459  98.1008  95.6095 0167590  80.4899 281.5185 15.05943975201114
AAUSAT 4
1 41460U 16025E   19359.53413862  .00001478  00000-0  76325-4 0  9995
2 41460  98.0990  97.3577 0157126  71.2357 290.5830 15.08030591201278
NUSAT 1
1 41557U 16033B   19359.50789540  .00000924  00000-0  36916-4 0  9994
2 41557  97.4120  85.8835 0013338 354.0150   6.0927 15.27618747199067
BEESAT 4
1 41619U 16040W   19358.89426323 +.00001107 +00000-0 +49135-4 0  9990
2 41619 097.3451 057.3847 0012853 080.2833 279.9855 15.23561425182661
PRATHAM
1 41783U 16059A   19359.39015850  .00000064  00000-0  21551-4 0  9990
2 41783  98.0436  54.5299 0034381 145.6680 214.6754 14.63028261173281
ALSAT 1N
1 41789U 16059G   19359.42162026  .00000061  00000-0  20483-4 0  9998
2 41789  98.0470  56.9782 0029256 134.0308 226.3321 14.64285486173412
NAYIF 1
1 42017U 17008BX  19358.90776051 +.00001233 +00000-0 +50753-4 0  9994
2 42017 097.3831 063.8725 0005339 208.8262 151.2682 15.26002370158775
MAX VALIER SAT
1 42778U 17036P   19358.85613017 +.00000714 +00000-0 +33923-4 0  9998
2 42778 097.3311 052.1207 0010651 280.9612 079.0426 15.22315694139012
